This demonstration page uses our WeatherBlox Daily Observations layout. Learn more.

Left ArrowRight Arrow

Hourly Observations for March 15, 2022

Temp ( °F °C ) Dew Point ( °F °C ) Humidity (%) Winds ( mph kmh ) Pressure ( in mb ) Visibility ( mi km ) Precip ( " mm )
12:15 am 00:15 Clear 30 -1 25 -4 80 80 NNE 7 11 30.42 1030 10 16 0.00 0.00
12:35 am 00:35 Clear 30 -1 25 -4 80 80 N 7 11 30.42 1030 10 16 0.00 0.00
12:55 am 00:55 Clear 30 -1 25 -4 80 80 N 9 15 30.42 1030 10 16 0.00 0.00
1:15 am 01:15 Clear 30 -1 27 -3 86 86 NNW 9 15 30.43 1030 10 16 0.00 0.00
1:35 am 01:35 Clear 28 -2 23 -5 80 80 Calm 30.43 1030 10 16 0.00 0.00
1:55 am 01:55 Clear 28 -2 25 -4 86 86 SW 3 6 30.42 1030 10 16 0.00 0.00
2:15 am 02:15 Clear 25 -4 21 -6 86 86 W 7 11 30.45 1031 10 16 0.00 0.00
2:35 am 02:35 Clear 27 -3 23 -5 86 86 W 7 11 30.44 1031 10 16 0.00 0.00
2:55 am 02:55 Clear 27 -3 23 -5 86 86 W 7 11 30.44 1031 10 16 0.00 0.00
3:15 am 03:15 Clear 25 -4 21 -6 86 86 WNW 3 6 30.44 1031 10 16 0.00 0.00
3:35 am 03:35 Clear 21 -6 19 -7 93 93 W 7 11 30.45 1031 10 16 0.00 0.00
3:55 am 03:55 Clear 23 -5 19 -7 86 86 WNW 6 9 30.44 1031 10 16 0.00 0.00
4:15 am 04:15 Clear 21 -6 19 -7 93 93 W 5 7 30.44 1031 10 16 0.00 0.00
4:35 am 04:35 Clear 21 -6 18 -8 86 86 W 7 11 30.44 1031 10 16 0.00 0.00
4:55 am 04:55 Clear 21 -6 19 -7 93 93 NW 5 7 30.43 1030 10 16 0.00 0.00
5:15 am 05:15 Clear 21 -6 18 -8 86 86 WSW 6 9 30.44 1031 10 16 0.00 0.00
5:35 am 05:35 Clear 19 -7 18 -8 93 93 W 8 13 30.45 1031 10 16 0.00 0.00
5:55 am 05:55 Clear 19 -7 18 -8 93 93 W 8 13 30.45 1031 10 16 0.00 0.00
6:15 am 06:15 Clear 21 -6 19 -7 93 93 W 8 13 30.44 1031 10 16 0.00 0.00
6:35 am 06:35 Clear 21 -6 19 -7 93 93 W 9 15 30.45 1031 10 16 0.00 0.00
6:55 am 06:55 Clear 21 -6 19 -7 93 93 W 7 11 30.44 1031 10 16 0.00 0.00
7:15 am 07:15 Clear 21 -6 19 -7 93 93 WSW 7 11 30.45 1031 10 16 0.00 0.00
7:35 am 07:35 Clear 21 -6 19 -7 93 93 W 6 9 30.46 1031 10 16 0.00 0.00
7:55 am 07:55 Sunny 21 -6 18 -8 86 86 W 7 11 30.45 1031 10 16 0.00 0.00
8:15 am 08:15 Sunny 23 -5 19 -7 86 86 W 8 13 30.44 1031 10 16 0.00 0.00
8:35 am 08:35 Sunny 25 -4 21 -6 86 86 WSW 7 11 30.43 1030 10 16 0.00 0.00
8:55 am 08:55 Sunny 28 -2 23 -5 80 80 W 7 11 30.40 1029 10 16 0.00 0.00
9:15 am 09:15 Sunny 32 0 27 -3 80 80 W 6 9 30.39 1029 10 16 0.00 0.00
9:35 am 09:35 Sunny 34 1 28 -2 81 81 W 7 11 30.38 1029 10 16 0.00 0.00
9:55 am 09:55 Sunny 37 3 32 0 81 81 WSW 8 13 30.35 1028 10 16 0.00 0.00
10:15 am 10:15 Sunny 41 5 32 0 70 70 WSW 8 13 30.33 1027 10 16 0.00 0.00
10:35 am 10:35 Sunny 45 7 32 0 61 61 SW 9 15 30.30 1026 10 16 0.00 0.00
10:55 am 10:55 Sunny 48 9 32 0 54 54 SW 9 15 30.28 1025 10 16 0.00 0.00
11:15 am 11:15 Sunny 52 11 32 0 47 47 WSW 9 15 30.26 1025 10 16 0.00 0.00
11:35 am 11:35 Sunny 54 12 32 0 44 44 SSW 9 15 30.24 1024 10 16 0.00 0.00
11:55 am 11:55 Sunny 54 12 30 -1 41 41 SW 9 15 30.24 1024 10 16 0.00 0.00
12:15 pm 12:15 Sunny 55 13 30 -1 38 38 SW 10 17 30.21 1023 10 16 0.00 0.00
12:35 pm 12:35 Sunny 57 14 30 -1 36 36 SW 12 19 30.20 1023 10 16 0.00 0.00
12:55 pm 12:55 Sunny 59 15 28 -2 31 31 SSW 10 17 30.18 1022 10 16 0.00 0.00
1:15 pm 13:15 Sunny 61 16 28 -2 29 29 S 10 17 30.16 1021 10 16 0.00 0.00
1:35 pm 13:35 Sunny 63 17 28 -2 27 27 SW 9 15 30.14 1021 10 16 0.00 0.00
1:55 pm 13:55 Sunny 63 17 28 -2 27 27 SW 12 19 30.12 1020 10 16 0.00 0.00
2:15 pm 14:15 Sunny 64 18 27 -3 24 24 SSW 12 19 30.09 1019 10 16 0.00 0.00
2:35 pm 14:35 Sunny 66 19 27 -3 22 22 SSW 14 22 30.06 1018 10 16 0.00 0.00
2:55 pm 14:55 Sunny 68 20 25 -4 20 20 S 12 19 30.04 1017 10 16 0.00 0.00
3:15 pm 15:15 Sunny 68 20 27 -3 21 21 SW 14 22 30.02 1017 10 16 0.00 0.00
3:35 pm 15:35 Sunny 68 20 25 -4 20 20 SW 15 24 30.01 1016 10 16 0.00 0.00
3:55 pm 15:55 Sunny 68 20 25 -4 20 20 SSW 12 19 30.00 1016 10 16 0.00 0.00
4:15 pm 16:15 Sunny 68 20 23 -5 18 18 SW 17 28 29.99 1016 10 16 0.00 0.00
4:35 pm 16:35 Sunny 68 20 23 -5 18 18 SSW 17 28 29.98 1015 10 16 0.00 0.00
4:55 pm 16:55 Sunny 68 20 23 -5 18 18 SW 14 22 29.97 1015 10 16 0.00 0.00
5:15 pm 17:15 Sunny 68 20 21 -6 17 17 SW 16 26 29.96 1015 10 16 0.00 0.00
5:35 pm 17:35 Sunny 68 20 21 -6 17 17 SSW 15 24 29.96 1015 10 16 0.00 0.00
5:55 pm 17:55 Sunny 68 20 21 -6 17 17 SSW 15 24 29.94 1014 10 16 0.00 0.00
6:15 pm 18:15 Sunny 68 20 21 -6 17 17 SW 13 20 29.93 1014 10 16 0.00 0.00
6:35 pm 18:35 Sunny 68 20 21 -6 17 17 SW 13 20 29.92 1013 10 16 0.00 0.00
6:55 pm 18:55 Sunny 66 19 19 -7 17 17 SSW 14 22 29.93 1014 10 16 0.00 0.00
7:15 pm 19:15 Sunny 63 17 18 -8 17 17 SSW 10 17 29.94 1014 10 16 0.00 0.00
7:35 pm 19:35 Sunny 61 16 18 -8 19 19 S 9 15 29.95 1014 10 16 0.00 0.00
7:55 pm 19:55 Clear 59 15 18 -8 20 20 S 8 13 29.96 1014 10 16 0.00 0.00
8:15 pm 20:15 Clear 55 13 16 -9 21 21 S 8 13 29.97 1015 10 16 0.00 0.00
8:35 pm 20:35 Clear 54 12 18 -8 24 24 S 8 13 29.98 1015 10 16 0.00 0.00
8:55 pm 20:55 Clear 54 12 19 -7 26 26 S 7 11 29.98 1015 10 16 0.00 0.00
9:15 pm 21:15 Clear 52 11 19 -7 28 28 S 9 15 29.99 1016 10 16 0.00 0.00
9:35 pm 21:35 Clear 52 11 19 -7 28 28 S 9 15 29.99 1016 10 16 0.00 0.00
9:55 pm 21:55 Clear 52 11 19 -7 28 28 S 12 19 29.98 1015 10 16 0.00 0.00
10:15 pm 22:15 Clear 50 10 19 -7 30 30 S 10 17 29.99 1016 10 16 0.00 0.00
10:35 pm 22:35 Clear 48 9 19 -7 32 32 S 10 17 29.99 1016 10 16 0.00 0.00
10:55 pm 22:55 Clear 48 9 21 -6 34 34 S 10 17 29.99 1016 10 16 0.00 0.00
11:15 pm 23:15 Clear 48 9 21 -6 34 34 S 10 17 29.99 1016 10 16 0.00 0.00
11:35 pm 23:35 Clear 48 9 23 -5 37 37 S 9 15 29.98 1015 10 16 0.00 0.00
11:55 pm 23:55 Clear 45 7 21 -6 39 39 S 8 13 30.00 1016 10 16 0.00 0.00

Powered by AerisWeather